Grayling, MI

8:34 AM EDT on September 20, 2017 (GMT -0400)
Grayling

Weather History for KGOV - December, 2012

Change the Weather History Date:

Monday, December 31, 2012

  Actual Average (KHTL) Record (KHTL)
Temperature  
Mean Temperature 24 °F -  
Max Temperature 31 °F 27 °F 55 °F (1965)
Min Temperature 18 °F 11 °F -18 °F (1976)
Degree Days  
Heating Degree Days 40    
Moisture  
Dew Point 23 °F    
Average Humidity 85    
Maximum Humidity 96    
Minimum Humidity 75    
Precipitation  
Precipitation 0.00 in - - ()
Sea Level Pressure  
Sea Level Pressure 29.89 in    
Wind  
Wind Speed 10 mph (West)    
Max Wind Speed 20 mph    
Max Gust Speed 29 mph    
Visibility 7 miles    
Events Snow    
Averages and records for this station are not official NWS values.
T = Trace of Precipitation, MM = Missing Value Source: NWS Daily Summary

Daily Weather History Graph

Daily Weather History Graph

Search for Another Location

Airport or City:

Trip Planner

Search our weather history database for the weather conditions in past years. The results will help you decide how hot, cold, wet, or windy it might be!

Date:

Astronomy

Dec. 31, 2012 Rise Set
Actual Time 8:16 AM EST 5:08 PM EST
Civil Twilight 7:42 AM EST 5:42 PM EST
Nautical Twilight 7:05 AM EST 6:18 PM EST
Astronomical Twilight 6:30 AM EST 6:54 PM EST
Moon 8:47 PM EST (12/31) 9:49 AM EST (12/31)
Length of Visible Light 9h 59m
Length of Day
8h 52m
Waning Gibbous, 90% of the Moon is Illuminated
Dec 31
Waning Gibbous
Jan 4
Last Quarter
Jan 11
New
Jan 18
First Quarter
Jan 26
Full

Hourly Weather History & Observations

Time (EST) Temp. Windchill Dew Point Humidity Pressure Visibility Wind Dir Wind Speed Gust Speed Precip Events Conditions
12:14 AM 28.4 °F 19.1 °F 25.7 °F 90% 29.99 in 10.0 mi SSW 10.4 mph 16.1 mph N/A   Overcast
12:34 AM 28.4 °F 20.4 °F 25.7 °F 90% 29.98 in 7.0 mi SW 8.1 mph - N/A   Overcast
12:54 AM 28.4 °F 21.2 °F 25.7 °F 90% 29.97 in 7.0 mi SW 6.9 mph - N/A   Overcast
1:14 AM 28.4 °F 23.3 °F 25.7 °F 90% 29.95 in 7.0 mi SSW 4.6 mph - N/A   Overcast
1:34 AM 28.4 °F 21.2 °F 25.7 °F 90% 29.94 in 7.0 mi SW 6.9 mph - N/A   Overcast
1:54 AM 28.4 °F 20.4 °F 25.7 °F 90% 29.93 in 7.0 mi SW 8.1 mph - N/A   Overcast
2:15 AM 28.4 °F 19.1 °F 25.9 °F 90% 29.92 in 7.0 mi SW 10.4 mph - N/A   Overcast
2:35 AM 28.4 °F 18.5 °F 26.2 °F 92% 29.91 in 7.0 mi SW 11.5 mph - N/A   Mostly Cloudy
2:55 AM 28.4 °F 20.4 °F 26.4 °F 92% 29.91 in 7.0 mi SW 8.1 mph - N/A   Scattered Clouds
3:15 AM 28.4 °F 21.2 °F 26.6 °F 93% 29.89 in 7.0 mi SSW 6.9 mph - N/A   Mostly Cloudy
3:35 AM 28.4 °F 19.7 °F 27.0 °F 94% 29.89 in 5.0 mi SSW 9.2 mph - N/A   Overcast
3:55 AM 28.4 °F 20.4 °F 27.3 °F 96% 29.88 in 5.0 mi SSW 8.1 mph - N/A   Overcast
4:15 AM 29.3 °F 20.2 °F 27.9 °F 94% 29.87 in 5.0 mi SW 10.4 mph - N/A   Overcast
4:35 AM 29.7 °F 20.1 °F 28.2 °F 94% 29.85 in 5.0 mi SSW 11.5 mph 16.1 mph N/A   Overcast
4:55 AM 29.8 °F 22.2 °F 28.2 °F 94% 29.84 in 5.0 mi SSW 8.1 mph - N/A   Overcast
5:16 AM 29.5 °F 21.1 °F 27.9 °F 94% 29.83 in 5.0 mi SSW 9.2 mph 16.1 mph N/A   Overcast
5:31 AM 29.3 °F 20.2 °F 27.5 °F 93% 29.83 in 5.0 mi SW 10.4 mph - N/A   Overcast
5:51 AM 29.8 °F 20.9 °F 28.2 °F 94% 29.82 in 5.0 mi SSW 10.4 mph - N/A   Overcast
6:11 AM 29.8 °F 22.2 °F 28.2 °F 94% 29.83 in 5.0 mi SW 8.1 mph - N/A   Overcast
6:31 AM 29.3 °F 23.2 °F 27.7 °F 94% 29.83 in 5.0 mi SW 5.8 mph - N/A   Overcast
6:51 AM 29.3 °F 23.2 °F 27.5 °F 93% 29.83 in 5.0 mi SW 5.8 mph - N/A   Overcast
7:11 AM 29.8 °F 23.9 °F 28.2 °F 94% 29.82 in 5.0 mi SW 5.8 mph - N/A   Overcast
7:51 AM 30.4 °F 24.5 °F 28.8 °F 94% 29.82 in 5.0 mi WSW 5.8 mph - N/A   Overcast
8:11 AM 31.1 °F 23.7 °F 28.4 °F 90% 29.82 in 7.0 mi WSW 8.1 mph - N/A   Overcast
8:31 AM 31.1 °F 22.4 °F 27.9 °F 88% 29.83 in 7.0 mi West 10.4 mph - N/A   Overcast
8:52 AM 31.1 °F 21.4 °F 27.5 °F 87% 29.82 in 7.0 mi West 12.7 mph 20.7 mph N/A   Overcast
9:12 AM 31.1 °F 22.4 °F 27.3 °F 86% 29.83 in 7.0 mi West 10.4 mph 21.9 mph N/A   Overcast
9:32 AM 31.1 °F 23.1 °F 26.6 °F 83% 29.82 in 7.0 mi West 9.2 mph 20.7 mph N/A   Overcast
9:52 AM 30.4 °F 19.5 °F 25.3 °F 82% 29.82 in 7.0 mi West 15.0 mph 24.2 mph N/A   Overcast
10:12 AM 31.1 °F 20.9 °F 26.4 °F 83% 29.83 in 7.0 mi West 13.8 mph 17.3 mph N/A   Overcast
10:32 AM 29.8 °F 17.3 °F 24.6 °F 81% 29.84 in 7.0 mi WNW 19.6 mph 28.8 mph N/A   Overcast
10:52 AM 29.3 °F 20.2 °F 24.6 °F 83% 29.84 in 7.0 mi West 10.4 mph 25.3 mph N/A   Overcast
11:12 AM 29.5 °F 18.4 °F 25.3 °F 85% 29.85 in 7.0 mi West 15.0 mph 20.7 mph N/A   Overcast
11:32 AM 28.9 °F 18.2 °F 23.7 °F 81% 29.85 in 7.0 mi West 13.8 mph 24.2 mph N/A   Overcast
11:53 AM 28.8 °F 19.0 °F 23.4 °F 80% 29.84 in 7.0 mi West 11.5 mph 19.6 mph N/A   Overcast
12:13 PM 28.4 °F 17.5 °F 23.7 °F 83% 29.85 in 7.0 mi WNW 13.8 mph 19.6 mph N/A   Overcast
12:33 PM 28.4 °F 17.5 °F 23.9 °F 83% 29.85 in 7.0 mi WNW 13.8 mph 18.4 mph N/A   Overcast
12:53 PM 28.4 °F 19.7 °F 23.9 °F 83% 29.84 in 10.0 mi WNW 9.2 mph 17.3 mph N/A   Overcast
1:13 PM 28.4 °F 17.0 °F 23.9 °F 83% 29.84 in 10.0 mi WNW 15.0 mph 19.6 mph N/A   Overcast
1:33 PM 28.4 °F 17.5 °F 24.4 °F 85% 29.84 in 10.0 mi WNW 13.8 mph 17.3 mph N/A   Overcast
1:53 PM 28.4 °F 18.5 °F 24.4 °F 85% 29.83 in 10.0 mi West 11.5 mph 16.1 mph N/A   Overcast
2:13 PM 28.4 °F 19.7 °F 23.7 °F 83% 29.83 in 10.0 mi WNW 9.2 mph - N/A   Overcast
2:34 PM 28.4 °F 21.2 °F 21.7 °F 76% 29.84 in 10.0 mi West 6.9 mph 11.5 mph N/A   Overcast
2:54 PM 28.4 °F 17.5 °F 21.7 °F 76% 29.84 in 10.0 mi West 13.8 mph 17.3 mph N/A   Overcast
3:14 PM 28.4 °F 19.1 °F 21.7 °F 76% 29.85 in 10.0 mi West 10.4 mph 17.3 mph N/A Snow Light Snow
3:34 PM 28.4 °F 19.7 °F 21.9 °F 77% 29.86 in 7.0 mi West 9.2 mph - N/A Snow Light Snow
3:54 PM 28.4 °F 20.4 °F 22.1 °F 77% 29.87 in 7.0 mi West 8.1 mph - N/A Snow Light Snow
4:14 PM 28.4 °F 20.4 °F 22.1 °F 77% 29.88 in 10.0 mi West 8.1 mph - N/A Snow Light Snow
4:34 PM 27.9 °F 19.1 °F 21.4 °F 77% 29.89 in 5.0 mi West 9.2 mph - N/A Snow Light Snow
4:54 PM 26.1 °F 16.2 °F 20.3 °F 79% 29.89 in 5.0 mi West 10.4 mph - N/A Snow Light Snow
5:14 PM 26.1 °F 15.6 °F 20.1 °F 78% 29.90 in 7.0 mi West 11.5 mph 17.3 mph N/A Snow Light Snow
5:34 PM 25.5 °F 15.5 °F 19.8 °F 79% 29.90 in 7.0 mi West 10.4 mph - N/A Snow Light Snow
5:55 PM 24.8 °F 15.3 °F 19.2 °F 79% 29.92 in 7.0 mi West 9.2 mph 20.7 mph N/A Snow Light Snow
6:15 PM 24.8 °F 13.4 °F 18.1 °F 76% 29.92 in 10.0 mi NW 12.7 mph 18.4 mph N/A Snow Light Snow
6:35 PM 23.4 °F 11.6 °F 16.9 °F 76% 29.93 in 7.0 mi NW 12.7 mph 20.7 mph N/A Snow Light Snow
6:55 PM 22.1 °F 11.3 °F 16.0 °F 77% 29.93 in 10.0 mi WNW 10.4 mph - N/A Snow Light Snow
7:15 PM 21.9 °F 9.8 °F 16.3 °F 79% 29.95 in 5.0 mi NW 12.7 mph 20.7 mph N/A Snow Light Snow
7:35 PM 21.0 °F 7.6 °F 15.8 °F 80% 29.96 in 5.0 mi NW 15.0 mph 19.6 mph N/A Snow Light Snow
8:15 PM 19.8 °F 8.3 °F 13.5 °F 77% 29.97 in 10.0 mi NW 10.4 mph - N/A Snow Light Snow
8:31 PM 19.8 °F 9.1 °F 13.6 °F 77% 29.97 in 10.0 mi NNW 9.2 mph - N/A Snow Light Snow
8:51 PM 19.6 °F 9.7 °F 13.8 °F 78% 29.97 in 10.0 mi NNW 8.1 mph - N/A   Overcast
9:11 PM 19.8 °F 7.7 °F 13.1 °F 75% 29.97 in 10.0 mi NW 11.5 mph - N/A   Overcast
9:31 PM 19.4 °F 8.6 °F 12.6 °F 75% 29.98 in 7.0 mi NW 9.2 mph 19.6 mph N/A Snow Light Snow
10:11 PM 18.9 °F 9.8 °F 14.7 °F 84% 29.98 in 4.0 mi NW 6.9 mph - N/A Snow Light Snow
10:31 PM 18.9 °F 9.8 °F 14.5 °F 83% 29.99 in 7.0 mi WNW 6.9 mph - N/A Snow Light Snow
10:52 PM 18.5 °F 6.8 °F 13.6 °F 81% 29.99 in 7.0 mi NW 10.4 mph - N/A Snow Light Snow
11:12 PM 18.5 °F 8.4 °F 14.0 °F 83% 29.99 in 4.0 mi NW 8.1 mph - N/A Snow Light Snow
11:32 PM 18.5 °F 9.3 °F 13.3 °F 80% 30.00 in 10.0 mi NW 6.9 mph - N/A Snow Light Snow
11:52 PM 18.5 °F 10.4 °F 13.1 °F 79% 30.00 in 10.0 mi NW 5.8 mph - N/A   Overcast